• en Suisse
  • Liste des pays
  • À 7 jours
  • Température de l'eau
  • Carte satellitaire
  • Carte météo
  • Widgets météo
  • user-avatar
    Se connecter

    Météo par heure à Seredyntsi

    Ce jour, 18 Juillet, Mercredi

    Heure Température Précipitation Vent Pression Humidité
    00:00 +17°C° 0 mm 2 m/s 721 mmHg 97%
    01:00 +16°C° 0 mm 2 m/s 721 mmHg 97%
    02:00 +16°C° 0 mm 3 m/s 720 mmHg 98%
    03:00 +17°C° 0 mm 3 m/s 720 mmHg 97%
    04:00 +17°C° 0 mm 3 m/s 720 mmHg 97%
    05:00 +17°C° 0 mm 3 m/s 720 mmHg 96%
    06:00 +18°C° 0,1 mm 3 m/s 720 mmHg 95%
    07:00 +18°C° 0,1 mm 3 m/s 720 mmHg 94%
    08:00 +19°C° 0 mm 3 m/s 720 mmHg 92%
    09:00 +20°C° 0,2 mm 2 m/s 720 mmHg 88%
    10:00 +21°C° 0,2 mm 2 m/s 720 mmHg 84%
    11:00 +23°C° 0,2 mm 2 m/s 721 mmHg 81%
    12:00 +24°C° 0,4 mm 2 m/s 721 mmHg 78%
    13:00 +24°C° 0,4 mm 2 m/s 721 mmHg 76%
    14:00 +25°C° 0,4 mm 2 m/s 721 mmHg 73%
    15:00 +25°C° 0,6 mm 3 m/s 721 mmHg 75%
    16:00 +25°C° 0,6 mm 3 m/s 721 mmHg 77%
    17:00 +25°C° 0,6 mm 3 m/s 721 mmHg 79%
    18:00 +24°C° 0,2 mm 2 m/s 721 mmHg 83%
    19:00 +23°C° 0,2 mm 2 m/s 720 mmHg 87%
    20:00 +21°C° 0,2 mm 2 m/s 720 mmHg 92%
    21:00 +20°C° 0,5 mm 2 m/s 721 mmHg 93%
    22:00 +20°C° 0,5 mm 2 m/s 721 mmHg 94%
    23:00 +19°C° 0,5 mm 2 m/s 721 mmHg 95%

    Demain, 19 Juillet, Jeudi

    Heure Température Précipitation Vent Pression Humidité
    00:00 +19°C° 0,5 mm 2 m/s 721 mmHg 96%
    01:00 +19°C° 0,5 mm 2 m/s 721 mmHg 96%
    02:00 +19°C° 0,5 mm 2 m/s 721 mmHg 97%
    03:00 +18°C° 0 mm 2 m/s 721 mmHg 97%
    04:00 +18°C° 0 mm 2 m/s 722 mmHg 98%
    05:00 +18°C° 0 mm 3 m/s 722 mmHg 98%
    06:00 +19°C° 0 mm 3 m/s 722 mmHg 97%
    07:00 +20°C° 0 mm 3 m/s 722 mmHg 96%
    08:00 +20°C° 0 mm 4 m/s 723 mmHg 95%
    09:00 +21°C° 0,1 mm 4 m/s 723 mmHg 93%
    10:00 +21°C° 0,1 mm 4 m/s 723 mmHg 92%
    11:00 +21°C° 0,1 mm 4 m/s 723 mmHg 90%
    12:00 +22°C° 0,3 mm 4 m/s 723 mmHg 86%
    13:00 +23°C° 0,3 mm 4 m/s 723 mmHg 82%
    14:00 +25°C° 0,3 mm 5 m/s 723 mmHg 78%
    15:00 +25°C° 0,4 mm 5 m/s 723 mmHg 78%
    16:00 +26°C° 0,4 mm 5 m/s 723 mmHg 77%
    17:00 +26°C° 0,4 mm 5 m/s 724 mmHg 77%
    18:00 +23°C° 0,1 mm 5 m/s 724 mmHg 81%
    19:00 +22°C° 0,1 mm 4 m/s 723 mmHg 84%
    20:00 +21°C° 0,1 mm 4 m/s 723 mmHg 88%
    21:00 +20°C° 0 mm 4 m/s 724 mmHg 89%
    22:00 +19°C° 0 mm 4 m/s 724 mmHg 91%
    23:00 +18°C° 0 mm 4 m/s 724 mmHg 92%

    Après-demain, 20 Juillet, Vendredi

    Heure Température Précipitation Vent Pression Humidité
    00:00 +18°C° 0 mm 4 m/s 724 mmHg 93%
    01:00 +18°C° 0 mm 4 m/s 724 mmHg 94%
    02:00 +17°C° 0 mm 4 m/s 724 mmHg 96%
    03:00 +17°C° 0 mm 4 m/s 724 mmHg 96%
    04:00 +17°C° 0 mm 4 m/s 724 mmHg 96%
    05:00 +16°C° 0 mm 5 m/s 724 mmHg 97%
    06:00 +17°C° 0 mm 5 m/s 724 mmHg 95%
    07:00 +17°C° 0 mm 5 m/s 724 mmHg 93%
    08:00 +19°C° 0 mm 6 m/s 725 mmHg 91%
    09:00 +19°C° 0,1 mm 5 m/s 725 mmHg 91%
    10:00 +19°C° 0,1 mm 5 m/s 725 mmHg 92%
    11:00 +19°C° 0,1 mm 5 m/s 725 mmHg 92%
    12:00 +20°C° 0,2 mm 5 m/s 725 mmHg 88%
    13:00 +22°C° 0,2 mm 5 m/s 725 mmHg 84%
    14:00 +23°C° 0,2 mm 6 m/s 725 mmHg 79%
    15:00 +23°C° 0,5 mm 6 m/s 725 mmHg 80%
    16:00 +23°C° 0,5 mm 6 m/s 725 mmHg 81%
    17:00 +23°C° 0,5 mm 6 m/s 725 mmHg 82%
    18:00 +22°C° 0,2 mm 5 m/s 725 mmHg 85%
    19:00 +21°C° 0,2 mm 5 m/s 725 mmHg 87%
    20:00 +20°C° 0,2 mm 4 m/s 725 mmHg 90%
    21:00 +20°C° 0 mm 4 m/s 725 mmHg 91%
    22:00 +19°C° 0 mm 4 m/s 725 mmHg 91%
    23:00 +19°C° 0 mm 4 m/s 725 mmHg 92%

    21 Juillet, Samedi

    Heure Température Précipitation Vent Pression Humidité
    00:00 +18°C° 0 mm 4 m/s 725 mmHg 93%
    01:00 +18°C° 0 mm 4 m/s 725 mmHg 93%
    02:00 +17°C° 0 mm 4 m/s 725 mmHg 94%
    03:00 +17°C° 0 mm 4 m/s 725 mmHg 95%
    04:00 +17°C° 0 mm 4 m/s 725 mmHg 95%
    05:00 +15°C° 0 mm 4 m/s 725 mmHg 96%
    06:00 +18°C° 0 mm 4 m/s 726 mmHg 93%
    07:00 +19°C° 0 mm 4 m/s 726 mmHg 90%
    08:00 +20°C° 0 mm 5 m/s 726 mmHg 87%
    09:00 +21°C° 0 mm 5 m/s 726 mmHg 82%
    10:00 +22°C° 0 mm 5 m/s 726 mmHg 77%
    11:00 +23°C° 0 mm 5 m/s 726 mmHg 72%
    12:00 +25°C° 0 mm 5 m/s 726 mmHg 69%
    13:00 +25°C° 0 mm 5 m/s 726 mmHg 67%
    14:00 +26°C° 0 mm 5 m/s 726 mmHg 64%
    15:00 +26°C° 0 mm 5 m/s 726 mmHg 65%
    16:00 +26°C° 0 mm 4 m/s 726 mmHg 66%
    17:00 +25°C° 0 mm 4 m/s 726 mmHg 67%
    18:00 +24°C° 0 mm 3 m/s 726 mmHg 72%
    19:00 +23°C° 0 mm 2 m/s 726 mmHg 78%
    20:00 +20°C° 0 mm 2 m/s 725 mmHg 83%
    21:00 +20°C° 0 mm 1 m/s 726 mmHg 85%
    22:00 +20°C° 0 mm 1 m/s 726 mmHg 87%
    23:00 +19°C° 0 mm 1 m/s 726 mmHg 89%

    22 Juillet, Dimanche

    Heure Température Précipitation Vent Pression Humidité
    00:00 +18°C° 0 mm 1 m/s 726 mmHg 89%
    01:00 +18°C° 0 mm 1 m/s 725 mmHg 90%
    02:00 +18°C° 0 mm 1 m/s 725 mmHg 90%
    03:00 +18°C° 0 mm 1 m/s 725 mmHg 91%
    04:00 +16°C° 0 mm 1 m/s 725 mmHg 91%
    05:00 +15°C° 0 mm 0 m/s 725 mmHg 91%
    06:00 +17°C° 0 mm 0 m/s 725 mmHg 86%
    07:00 +19°C° 0 mm 0 m/s 725 mmHg 81%
    08:00 +22°C° 0 mm 1 m/s 725 mmHg 76%
    09:00 +24°C° 0,1 mm 1 m/s 725 mmHg 72%
    10:00 +25°C° 0,1 mm 1 m/s 725 mmHg 68%
    11:00 +26°C° 0,1 mm 1 m/s 725 mmHg 64%
    12:00 +26°C° 0,4 mm 1 m/s 725 mmHg 62%
    13:00 +26°C° 0,4 mm 1 m/s 724 mmHg 61%
    14:00 +27°C° 0,4 mm 1 m/s 724 mmHg 60%
    15:00 +27°C° 0,5 mm 1 m/s 724 mmHg 61%
    16:00 +27°C° 0,5 mm 1 m/s 724 mmHg 62%
    17:00 +27°C° 0,5 mm 1 m/s 724 mmHg 63%
    18:00 +25°C° 0,6 mm 1 m/s 724 mmHg 68%
    19:00 +24°C° 0,6 mm 1 m/s 724 mmHg 74%
    20:00 +21°C° 0,6 mm 2 m/s 724 mmHg 80%
    21:00 +20°C° 0 mm 2 m/s 724 mmHg 81%
    22:00 +19°C° 0 mm 2 m/s 724 mmHg 81%
    23:00 +19°C° 0 mm 2 m/s 724 mmHg 82%

    23 Juillet, Lundi

    Heure Température Précipitation Vent Pression Humidité
    00:00 +18°C° 0 mm 2 m/s 724 mmHg 82%
    01:00 +18°C° 0 mm 2 m/s 724 mmHg 82%
    02:00 +17°C° 0 mm 2 m/s 724 mmHg 82%
    03:00 +17°C° 0 mm 2 m/s 724 mmHg 83%
    04:00 +18°C° 0 mm 1 m/s 725 mmHg 84%
    05:00 +16°C° 0 mm 1 m/s 725 mmHg 85%
    06:00 +19°C° 0 mm 1 m/s 725 mmHg 82%
    07:00 +20°C° 0 mm 1 m/s 725 mmHg 78%
    08:00 +22°C° 0 mm 1 m/s 726 mmHg 75%
    09:00 +23°C° 0,1 mm 2 m/s 726 mmHg 71%
    10:00 +25°C° 0,1 mm 2 m/s 726 mmHg 67%
    11:00 +26°C° 0,1 mm 2 m/s 726 mmHg 63%
    12:00 +27°C° 0,1 mm 3 m/s 726 mmHg 61%
    13:00 +27°C° 0,1 mm 3 m/s 726 mmHg 60%
    14:00 +28°C° 0,1 mm 3 m/s 726 mmHg 58%
    15:00 +27°C° 0,3 mm 3 m/s 726 mmHg 61%
    16:00 +27°C° 0,3 mm 3 m/s 726 mmHg 64%
    17:00 +27°C° 0,3 mm 3 m/s 726 mmHg 67%
    18:00 +25°C° 0,4 mm 3 m/s 726 mmHg 72%
    19:00 +24°C° 0,4 mm 2 m/s 726 mmHg 77%
    20:00 +21°C° 0,4 mm 2 m/s 726 mmHg 82%
    21:00 +20°C° 0 mm 2 m/s 726 mmHg 84%
    22:00 +19°C° 0 mm 2 m/s 726 mmHg 86%
    23:00 +18°C° 0 mm 2 m/s 726 mmHg 88%
    Voir plus